Simultaneous Nadir Overpasses (SNOs) Predictions

Prediction of SNOs between GOES-15 and LANDSAT-8 Satellite Orbit:

Table of predicted SNOs for the next 14.0 days since TLE Epoch: 10/7/2023
Index Date Time (GOES-15) GOES-15 Lat,Lon LANDSAT-8 Lat,Lon Distance(km) Time Diff (sec)
1 10/07/2023 03:53:13 -0.32, 90.41 -1.13, 94.31 443.74 80
2 10/07/2023 16:17:19 0.33, 89.97 0.17, 89.09 99.40 80
3 10/09/2023 16:02:35 0.32, 87.84 1.17, 91.96 468.57 80
4 10/10/2023 04:26:34 -0.33, 87.17 -0.27, 86.77 45.24 80
5 10/12/2023 16:35:56 0.33, 84.58 0.31, 84.42 17.86 80
6 10/15/2023 04:42:29 -0.33, 81.77 -0.38, 82.11 38.00 80
7 10/17/2023 16:51:50 0.32, 79.18 0.46, 79.76 66.84 80
8 10/18/2023 05:15:46 -0.32, 78.52 0.53, 74.59 447.85 80
9 10/20/2023 05:01:02 -0.32, 76.38 -0.57, 77.45 122.35 80
10 10/20/2023 17:25:06 0.31, 75.92 -0.46, 72.24 417.99 80
